星链-4699 (STARLINK-4699 )

导读

STARLINK-4699是美国于2022年9月5日发射的星链卫星,属于SpaceX打造的星链卫星互联网星座的一部分。截至当前(2026年3月),该卫星已在轨运行超三年,承担着为全球范围提供低延迟、高速率的卫星互联网接入服务,推动全球网络覆盖尤其是偏远地区联网能力提升。

基本信息
目录编号:
53716
目录名称:
STARLINK-4699
国际标识:
2022-107S
轨道中心:
EARTH
卫星名称:
星链-4699
卫星全名:
星链-4699 (STARLINK-4699 )
卫星状态:
在轨 (已飞行1381 天)
发射日期:
2022-09-05 UTC
国别 :
美国 (US)
星等 :
--
轨道信息
数据来源 国际轨道数据 AOE轨道数据
星历时间 2026-06-16T14:59:35+0800
1天前
查看轨道信息
2026-06-13T06:00:00+0800
4天前
查看轨道信息
半长轴 6917.907km 6917.882km
偏心率 0.0001248 0.000111
轨道倾角 53.160° 53.156°
近地点辐角 86.968° 85.655°
升交点赤经 171.066° 186.237°
平近点角 273.145° 293.699°
近地点 538.906km 538.977km
远地点 540.634km 540.513km
周期 95.438分钟 95.438分钟
每日圈数 15.088314 15.088397
详细信息
固有亮度:
5
最大亮度:
2.5
卫星平台:
Starlink v1.5
覆盖范围:
全球
运营商:
太空探索技术公司
运营商所在国:
美国
制造商(研发单位):
太空探索技术公司
制造商所在国:
美国
使用方式:
暂无
卫星简介
星链(Starlink)计划是由太空探索技术公司(SpaceX)提出的一个巨型低轨卫星互联网星座项目,计划在2019年至2024年间在太空搭建由约1.2万颗卫星组成的“星链”网络,其中1584颗将部署在地球上空550千米处的近地轨道,并从2020年开始工作。该卫星仍在工作。
2D轨道图
3D轨道图
轨道高度分析图
轨道倾角分析图
轨道综合分析图
查看轨道综合分析图